Location: Fontevrault
(47.1823°N, 0.0493°E)
Time: 07:57:46
(UTC+00:00)

COSMOS 2428 - Pass Details

Date: 16 June 2021
Orbit: 845 x 858 km, 70.9° (Epoch: 27 July)

Event Time Altitude Azimuth Distance (km) Brightness Sun altitude
Exits shadow 23:42:58 - 237° (WSW) 2,605 5.0 -19.3°
Reaches altitude 10° 23:43:18 10° 239° (WSW) 2,487 4.9 -19.3°
Maximum altitude 23:48:38 39° 307° (NW) 1,273 3.9 -19.4°
Drops below altitude 10° 23:54:00 10° 16° (NNE) 2,504 6.2 -19.4°
Sets 23:56:39 0° 24° (NNE) 3,444 7.0 -19.4°
